Home   Weather   47°09'N, 27°35'E   Past weeks
Flag for Romania

Past Weather in 47°09'N, 27°35'E, Romania — Yesterday and Last 2 Weeks

Now
72 °F

Passing clouds.


Feels Like: 75 °F
Forecast: 80 / 59 °F
Wind: 14 mph from Northwest

Location: Iasi Airport

Current Time: Jul 23, 2019 at 12:19:57 pm

Latest Report: Jul 23, 2019 at 11:30 am


Visibility: N/A

Pressure: 30.04 "Hg

Humidity: 65%

Dew Point: 59 °F

Location of 47°09'N, 27°35'ELocation

Past Weather in 47°09'N, 27°35'E — Graph

°F

47°09'N, 27°35'E Temperature Yesterday

Maximum temperature yesterday: 82 °F (at 2:30 pm)
Minimum temperature yesterday: 66 °F (at 4:00 am)
Average temperature yesterday: 74 °F

High & Low Weather Summary for the Past Weeks

 TemperatureHumidityPressure
High88 °F (Jul 20, 5:30 pm)94% (Jul 14, 10:00 pm)30.12 "Hg (Jul 14, 10:00 pm)
Low54 °F (Jul 9, 5:00 am)27% (Jul 20, 5:00 pm)29.71 "Hg (Jul 14, 4:30 pm)
Average67 °F62%29.91 "Hg
* Reported Jul 8 11:00 am — Jul 23 11:00 am, 47°09'N, 27°35'E. Weather by CustomWeather, © 2019

Note: Actual official high and low records may vary slightly from our data, if they occured in-between our weather recording intervals... More about our weather records

Advertising

47°09'N, 27°35'E Weather History for the Previous 24 Hours

Scroll right to see more
 ConditionsComfort  
Time TempWeatherWind HumidityBarometerVisibility
11:00 am
Tue, Jul 23
72 °FPassing clouds.12 mph65%30.04 "HgN/A
10:30 am72 °FPassing clouds.12 mph69%30.04 "HgN/A
10:00 am70 °FSunny.7 mph73%30.04 "Hg10 mi
9:30 am70 °FSunny.7 mph73%30.04 "Hg10 mi
9:00 am68 °FPassing clouds.5 mph78%30.04 "HgN/A
8:30 am68 °FSunny.3 mph78%30.04 "Hg10 mi
8:00 am66 °FPassing clouds.3 mph83%30.04 "HgN/A
7:30 am66 °FSunny.1 mph78%30.04 "Hg10 mi
7:00 am66 °FSunny.3 mph83%30.04 "Hg10 mi
6:30 am64 °FSunny.5 mph83%30.04 "Hg10 mi
5:30 am64 °FPassing clouds.5 mph83%30.04 "HgN/A
5:00 am63 °FClear.2 mph88%30.04 "Hg10 mi
4:30 am64 °FClear.5 mph83%30.04 "Hg10 mi
4:00 am66 °FClear.6 mph78%30.04 "Hg10 mi
3:30 am64 °FClear.3 mph83%30.07 "Hg10 mi
3:00 am66 °FClear.2 mph83%30.07 "Hg10 mi
2:30 am68 °FClear.2 mph73%30.07 "Hg10 mi
2:00 am68 °FClear.5 mph78%30.07 "Hg10 mi
1:30 am70 °FClear.7 mph69%30.07 "Hg10 mi
1:00 am70 °FClear.6 mph69%30.07 "Hg10 mi
12:30 am70 °FClear.3 mph69%30.07 "Hg10 mi
12:00 am70 °FClear.6 mph69%30.07 "Hg10 mi
11:30 pm
Mon, Jul 22
70 °FClear.6 mph73%30.07 "Hg10 mi
11:00 pm72 °FClear.7 mph65%30.07 "Hg10 mi
10:30 pm73 °FClear.7 mph65%30.07 "Hg10 mi
10:00 pm73 °FClear.5 mph65%30.07 "Hg10 mi
9:30 pm73 °FClear.5 mph65%30.07 "Hg10 mi
9:00 pm77 °FClear.3 mph57%30.07 "Hg10 mi
8:30 pm77 °FSunny.5 mph57%30.07 "Hg10 mi
8:00 pm79 °FSunny.1 mph51%30.07 "Hg10 mi
7:30 pm79 °FSunny.3 mph51%30.07 "Hg10 mi
6:30 pm79 °FSunny.7 mph51%30.07 "Hg10 mi
6:00 pm81 °FSunny.9 mph48%30.07 "Hg10 mi
5:30 pm82 °FPassing clouds.10 mph45%30.04 "HgN/A
5:00 pm81 °FScattered clouds.12 mph48%30.04 "HgN/A
4:30 pm81 °FPartly sunny.10 mph45%30.07 "HgN/A
4:00 pm82 °FScattered clouds.9 mph45%30.07 "HgN/A
3:30 pm81 °FPartly sunny.12 mph48%30.07 "HgN/A
3:00 pm82 °FPartly sunny.10 mph45%30.07 "HgN/A
2:30 pm82 °FPassing clouds.9 mph45%30.07 "HgN/A
2:00 pm81 °FWarm.10 mph48%30.09 "HgN/A
1:30 pm81 °FPassing clouds.10 mph48%30.09 "HgN/A
1:00 pm79 °FSunny.14 mph51%30.09 "Hg10 mi
12:30 pm79 °FPassing clouds.12 mph51%30.09 "HgN/A
Weather by CustomWeather, © 2019

See weather overview